Starlink 6304

operational
NORAD ID: 56778 Int'l Des: 2023-078 Owner: SPXS Country: US Constellation: starlink
LEOCIRCULAR

Starlink 6304について

説明を読み込み中...

リアルタイム位置

3D地球を読み込み中...

次回通過

高度履歴

Altitude vs Time

uPlot chart will show altitude changes over time

軌道要素

1 56778U 23078M 26034.46853904 .00000056 00000-0 12511-4 0 9992
2 56778 69.9996 50.8965 0002996 269.2072 90.8744 14.98330898148042
Epoch: Feb 3, 2026 • Age: 13 hours

現在のステータス

高度 577.8 km
速度 7.57 km/s
衛星直下点 36.57°N, 72.63°W
打ち上げ日 May 31, 2023
運用期間 2.6 years
タイプ internet

技術仕様

分類 Payload
質量 305.00 kg
乾燥質量 290.00 kg
総質量 305.00 kg
長さ 0.20 m
直径 2.80 m
スパン 9.00 m
形状 Box + pan
製造者 SPXS
バスタイプ Starlink
フェーズステータス In Orbit
所有者/国 SPXS/US

大規模コンステレーション

Loading constellations...